This is the latest recevied weather packets stored in our database for station/object 9W2XPF-13. If no packets are shown the sender has not sent any weather packets the latest 10 day(s).
| Time | Temp. | Humidity | Pressure | Rain* | Wind** | Luminosity | Snow |
|---|---|---|---|---|---|---|---|
| 1777861803 | 32.78° C | 71% | 1010.5 hPa | 0 mm | - | - | - |
| 1777861683 | 32.22° C | 71% | 1010.6 hPa | 0 mm | - | - | - |
| 1777861563 | 32.22° C | 72% | 1010.4 hPa | 0 mm | - | - | - |
| 1777861443 | 31.67° C | 73% | 1010.6 hPa | 0 mm | - | - | - |
| 1777861323 | 31.67° C | 74% | 1010.8 hPa | 0 mm | - | - | - |
| 1777861202 | 31.67° C | 73% | 1010.8 hPa | 0 mm | - | - | - |
| 1777861083 | 31.67° C | 73% | 1010.7 hPa | 0 mm | - | - | - |
| 1777860962 | 31.67° C | 74% | 1010.8 hPa | 0 mm | - | - | - |
| 1777860843 | 31.67° C | 74% | 1010.8 hPa | 0 mm | - | - | - |
| 1777860723 | 31.11° C | 75% | 1010.8 hPa | 0 mm | - | - | - |
| 1777860603 | 31.11° C | 75% | 1010.6 hPa | 0 mm | - | - | - |
| 1777860483 | 30.56° C | 76% | 1010.7 hPa | 0 mm | - | - | - |
| 1777860363 | 30.56° C | 76% | 1010.6 hPa | 0 mm | - | - | - |
| 1777860243 | 30.56° C | 76% | 1010.5 hPa | 0 mm | - | - | - |
| 1777860123 | 31.11° C | 76% | 1010.6 hPa | 0 mm | - | - | - |
| 1777860003 | 31.11° C | 76% | 1010.5 hPa | 0 mm | - | - | - |
| 1777859883 | 30.56° C | 76% | 1010.4 hPa | 0 mm | - | - | - |
| 1777859763 | 30.56° C | 77% | 1010.4 hPa | 0 mm | - | - | - |
| 1777859643 | 30.56° C | 77% | 1010.5 hPa | 0 mm | - | - | - |
| 1777859522 | 30.56° C | 78% | 1010.6 hPa | 0 mm | - | - | - |
| 1777859403 | 30.56° C | 78% | 1010.5 hPa | 0 mm | - | - | - |
| 1777859283 | 30.56° C | 79% | 1010.5 hPa | 0 mm | - | - | - |
| 1777859163 | 30.56° C | 79% | 1010.7 hPa | 0 mm | - | - | - |
| 1777859043 | 30° C | 80% | 1010.4 hPa | 0 mm | - | - | - |
| 1777858923 | 30° C | 80% | 1010.6 hPa | 0 mm | - | - | - |
* Rain latest hour (hover to see other rain measurements)
** Current wind speed in m/s (hover to see current wind gust speed)